Weather History for KAMA - June, 2013

Change the Weather History Date:

Wednesday, June 26, 2013

  Actual Average Record
Temperature  
Mean Temperature 87 °F 77 °F  
Max Temperature 103 °F 90 °F 111 °F (2011)
Min Temperature 71 °F 64 °F 48 °F (1958)
Degree Days  
Heating Degree Days 0 0  
Month to date heating degree days 0 5  
Since 1 June heating degree days 0 5  
Since 1 July heating degree days 3736 4176  
Cooling Degree Days 22 12  
Month to date cooling degree days 324 239  
Year to date cooling degree days 572 364  
Since 1 June cooling degree days 324 239  
Growing Degree Days 37 (Base 50)    
Moisture  
Dew Point 55 °F    
Average Humidity 42    
Maximum Humidity 73    
Minimum Humidity 11    
Precipitation  
Precipitation 0.00 in 0.09 in 1.70 in (1982)
Month to date precipitation 2.54 2.79  
Year to date precipitation 8.83 9.15  
Snow  
Snow 0.00 in 0.00 in T in (2007)
Month to date snowfall 0.0 0.0  
Since 1 June snowfall 0.0 0.0  
Since 1 July snowfall 29.7 17.8  
Snow Depth 0.00 in    
Sea Level Pressure  
Sea Level Pressure 29.75 in    
Wind  
Wind Speed 12 mph (SSE)    
Max Wind Speed 22 mph    
Max Gust Speed 25 mph    
Visibility 10 miles    
Events      
T = Trace of Precipitation, MM = Missing Value Source: NWS Daily Summary

Daily Weather History Graph

Daily Weather History Graph

Search for Another Location

Airport or City:

Trip Planner

Search our weather history database for the weather conditions in past years. The results will help you decide how hot, cold, wet, or windy it might be!

Date:

Astronomy

Jun. 26, 2013 Rise Set
Actual Time 6:34 AM CDT 9:05 PM CDT
Civil Twilight 6:04 AM CDT 9:35 PM CDT
Nautical Twilight 5:27 AM CDT 10:12 PM CDT
Astronomical Twilight 4:46 AM CDT 10:52 PM CDT
Moon 11:40 PM CDT (6/26) 10:19 AM CDT (6/26)
Length of Visible Light 15h 30m
Length of Day
14h 31m
Waning Gibbous, 85% of the Moon is Illuminated
Jun 26
Waning Gibbous
Jun 29
Last Quarter
Jul 8
New
Jul 15
First Quarter
Jul 22
Full

Hourly Weather History & Observations

Time (CDT) Temp. Heat Index Dew Point Humidity Pressure Visibility Wind Dir Wind Speed Gust Speed Precip Events Conditions
12:53 AM 78.1 °F - 54.0 °F 43% 29.69 in 10.0 mi SSW 16.1 mph - N/A   Clear
1:53 AM 78.1 °F - 60.1 °F 54% 29.69 in 10.0 mi SSW 18.4 mph - N/A   Clear
2:53 AM 77.0 °F - 62.1 °F 60% 29.69 in 8.0 mi SSW 16.1 mph - N/A   Clear
3:53 AM 75.0 °F - 62.1 °F 64% 29.69 in 8.0 mi South 15.0 mph - N/A   Clear
4:53 AM 73.9 °F - 63.0 °F 68% 29.70 in 10.0 mi SSW 18.4 mph 25.3 mph N/A   Clear
5:53 AM 73.0 °F - 63.0 °F 71% 29.72 in 10.0 mi SSW 16.1 mph - N/A   Clear
6:53 AM 72.0 °F - 63.0 °F 73% 29.73 in 10.0 mi SSW 13.8 mph - N/A   Clear
7:53 AM 73.0 °F - 63.0 °F 71% 29.75 in 10.0 mi SW 13.8 mph - N/A   Clear
8:53 AM 78.1 °F - 63.0 °F 60% 29.76 in 10.0 mi SW 13.8 mph - N/A   Clear
9:53 AM 82.0 °F 82.4 °F 60.1 °F 47% 29.78 in 10.0 mi West 10.4 mph - N/A   Clear
10:53 AM 88.0 °F 85.9 °F 54.0 °F 31% 29.78 in 10.0 mi West 10.4 mph - N/A   Clear
11:53 AM 91.9 °F - 41.0 °F 17% 29.79 in 10.0 mi NW 12.7 mph - N/A   Clear
12:53 PM 97.0 °F - 42.1 °F 15% 29.78 in 10.0 mi North 5.8 mph - N/A   Clear
1:53 PM 97.0 °F - 45.0 °F 17% 29.78 in 10.0 mi NE 6.9 mph - N/A   Clear
2:53 PM 98.1 °F - 46.0 °F 17% 29.77 in 10.0 mi ESE 3.5 mph - N/A   Clear
3:53 PM 102.0 °F - 42.1 °F 13% 29.75 in 10.0 mi East 6.9 mph - N/A   Clear
4:53 PM 102.0 °F - 37.9 °F 11% 29.74 in 10.0 mi South 4.6 mph - N/A   Clear
5:53 PM 102.0 °F - 39.9 °F 12% 29.73 in 10.0 mi ENE 9.2 mph - N/A   Clear
6:53 PM 99.0 °F - 52.0 °F 21% 29.74 in 10.0 mi ESE 13.8 mph - N/A   Clear
7:53 PM 96.1 °F 94.1 °F 55.0 °F 25% 29.75 in 10.0 mi ESE 16.1 mph - N/A   Clear
8:53 PM 91.0 °F 90.9 °F 61.0 °F 36% 29.77 in 10.0 mi ESE 18.4 mph - N/A   Clear
9:53 PM 86.0 °F 86.1 °F 61.0 °F 43% 29.79 in 10.0 mi ESE 11.5 mph - N/A   Clear
10:53 PM 84.9 °F 85.4 °F 62.1 °F 46% 29.80 in 10.0 mi ESE 13.8 mph - N/A   Clear
11:53 PM 81.0 °F 82.2 °F 63.0 °F 54% 29.82 in 10.0 mi ESE 13.8 mph - N/A   Clear